sat.trackr.live / text

‹ back to catalog

TIANTONG-1 3

NORAD 47321 · 2021-003A

PAYLOAD ACTIVE UNKNOWN

§ Identity

Operator
Country
PRC
Launch date
2021-01-19
Launch site
XICLF
Launch vehicle
Mass (kg)
RCS (m²)

Purposes: comms

External: N2YO · Heavens-Above · Gunter

§ Orbital elements

Epoch: 2026-05-25T02:25:07.936320Z

Period
1,436.12 min
Inclination
1.7751°
Eccentricity
0.0003255
Mean motion
1.00269871 rev/d
Perigee alt
35,773.4 km
Apogee alt
35,800.9 km
Semi-major
42,165.3 km
B*
0.0000e+0
RAAN
337.9674°
Arg perigee
87.5628°
Mean anomaly
294.9613°
Rev number
1,973

§ Raw data

TIANTONG-1 31 47321U 21003A   26145.10078630 -.00000159  00000+0  00000+0 0  99902 47321   1.7751 337.9674 0003255  87.5628 294.9613  1.00269871 19738

JSON: /api/v1/satellites/47321 · /tle

For live sub-satellite position, see the globe view (requires WebGL).

§ Visibility from observer

Set your observer location to see the next 7 days of passes ≥ 10°. The values pass through the URL so the page stays shareable.

No JS? Fill the form by hand. The geolocation button needs JavaScript.